Regional Weather Roundup
Issued by NWS

Home | Current Version | Previous Version | Text Only | Print | Product List | Glossary On
Versions: 1 2 3 4 5 6 7 8 9 10 11 12 13 14 15 16 17 18 19 20 21 22 23 24 25 26 27 28 29 30 31 32 33 34 35 36 37 38 39 40 41 42 43 44 45 46 47 48 49 50
000
ASUS45 KBOU 300907
RWRCO

WEATHER ROUNDUP FOR COLORADO
NATIONAL WEATHER SERVICE DENVER/BOULDER CO
300 AM MDT SAT AUG 30 2014

NOTE: "FAIR" INDICATES FEW OR NO CLOUDS BELOW 12000 FEET WITH NO
SIGNIFICANT WEATHER AND/OR OBSTRUCTIONS TO VISIBILITY.

COZ001>005-013-030-031-301000-
...NORTHWEST COLORADO...

CITY           SKY/WX    TMP DP  RH WIND       PRES   REMARKS
CRAIG          CLEAR     49  45  86 CALM      30.17F
HAYDEN         CLEAR     52  43  71 E12       30.19S
MEEKER         CLEAR     50  44  80 E6        30.20S
MOUNT WERNER   NOT AVBL
STEAMBOAT SPGS CLEAR     48  43  82 CALM      30.23S
WALDEN         CLEAR     39  36  87 SE8       30.30S
$$

COZ006>008-011-301000-
...WEST CENTRAL VALLEYS...

CITY           SKY/WX    TMP DP  RH WIND       PRES   REMARKS
GRAND JUNCTION CLEAR     62  49  62 E12       30.09S
MONTROSE       MOCLDY    58  45  62 S5        30.18F
EAGLE          CLEAR     48  45  87 CALM      30.28S
RIFLE          CLEAR     54  47  77 SE3       30.16F
DELTA          MOCLDY    58  47  66 NE3       30.14S
NUCLA          MOCLDY    57  43  58 CALM      30.20S
$$

COZ017>023-064>068-301000-
...SOUTHWEST COLORADO...

CITY           SKY/WX    TMP DP  RH WIND       PRES   REMARKS
DURANGO        CLEAR     50  42  74 CALM      30.21S
CORTEZ         CLEAR     50  45  83 E5        30.17F
PAGOSA SPRINGS CLEAR     49  37  64 CALM      30.29S
TELLURIDE      PTCLDY    48  39  71 SE7       30.38S
WOLF CREEK PAS PTCLDY    41  32  70 NE7       30.56F
$$

COZ009-010-012-014-032>034-037-058>063-301000-
...CENTRAL COLORADO...

CITY           SKY/WX    TMP DP  RH WIND       PRES   REMARKS
ASPEN          CLEAR     48  40  73 SW8       30.30F
BUENA VISTA    CLEAR     41  38  89 N5        30.36S
COPPER MTN     CLEAR     46  32  57 S12       30.56F
BERTHOUD PASS  FAIR      37  36  93 W12G21    30.59R
COTTONWOOD PAS CLEAR     50  34  53 SE3       30.45S
GUNNISON       PTCLDY    45  37  76 CALM      30.35S
KREMMLING      CLEAR     41  37  87 CALM      30.32S
LEADVILLE      CLEAR     36  33  89 CALM      30.44F
MONARCH PASS   PTCLDY    41  30  65 W6        30.67S
SALIDA         CLEAR     48  42  79 W6        30.41S
SUNLIGHT       CLEAR     52  37  58 CALM      30.50S
WILKERSON PASS NOT AVBL
$$

COZ069>075-301000-
...SAN LUIS VALLEY/SANGRE DE CRISTO MOUNTAINS...

CITY           SKY/WX    TMP DP  RH WIND       PRES   REMARKS
ALAMOSA        MOCLDY    50  42  74 S6        30.31R
LA VETA PASS   NOT AVBL
SAGUACHE       NOT AVBL
$$

COZ035-036-038>040-301000-
...NORTHERN COLORADO FRONT RANGE...

CITY           SKY/WX    TMP DP  RH WIND       PRES   REMARKS
DENVER INTL AP CLEAR     56  46  69 CALM      30.12F
DMNS CITY PARK   N/A     57  45  65 S5        30.11F
AURORA         PTCLDY    57  44  61 S10       30.14F
FRONT RANGE AP NOT AVBL
ERIE MUNI ARPT CLEAR     50  47  90 CALM      30.11F
BOULDER MUN AP CLEAR     52  46  82 N3        30.11F
CENTENNIAL     PTCLDY    57  42  57 S6        30.15F
BROOMFIELD     CLEAR     59  41  51 CALM      30.13F
FORT COLLINS   PTCLDY    54  52  94 NE3       30.12S
LONGMONT       PTCLDY    53  47  82 CALM      30.12F
$$

COZ041-046-047-076>085-087-088-301000-
...PIKES PEAK/PALMER DIVIDE AND SOUTHERN FOOTHILLS...

CITY           SKY/WX    TMP DP  RH WIND       PRES   REMARKS
COLO. SPRINGS  CLEAR     52  46  80 N6        30.20F
A. F. ACADEMY  CLEAR     47  44  88 N5        30.22S
ELLICOTT       CLEAR     50  47  89 S6        30.19F
FALCON         CLEAR     49  44  84 W7        30.24F
FORT CARSON    CLEAR     51  45  79 NW5       30.18F
LIMON          PTCLDY    52  48  86 CALM      30.15F
MONUMENT HILL  CLEAR     52  37  58 SW12      30.22F
TRINIDAD       CLOUDY    59  50  72 W14       30.21F
$$

COZ042>045-048>051-090-091-301000-
...NORTHEAST COLORADO...

CITY           SKY/WX    TMP DP  RH WIND       PRES   REMARKS
GREELEY ARPT   PTCLDY    52  45  76 NE5       30.10F
AKRON          PTCLDY    59  53  80 S7        30.10F
BURLINGTON     PTCLDY    57  53  86 NW7       30.09S
WRAY             N/A     59  56  91 CALM      30.07S
STERLING       PTCLDY    59  55  88 SW5       30.08S
HOLYOKE        CLEAR     59  55  88 CALM      30.07S
FORT MORGAN    PTCLDY    55  49  83 CALM      30.10F
$$

COZ086-089-092>099-301000-
...SOUTHEAST COLORADO...

CITY           SKY/WX    TMP DP  RH WIND       PRES   REMARKS
PUEBLO         CLEAR     59  47  64 W7        30.12F
LA JUNTA       MOCLDY    61  53  75 NW9       30.12S
LAMAR          MOCLDY    66  52  60 CALM      30.06F
SPRINGFIELD      N/A     60  52  74 SW6       30.11F
$$


USA.gov is the U.S. government's official web portal to all federal, state and local government web resources and services.